Location: *
(48.8667°N, 2.3331°E)
Time: 08:54:41
(UTC+00:00)

Cosmos 2061 Rocket - Pass Details

Date: 19 August 2020
Orbit: 966 x 1012 km, 82.9° (Epoch: 23 September)

Event Time Altitude Azimuth Distance (km) Brightness Sun altitude
Exits shadow 22:46:53 12° 239° (WSW) 2,545 6.0 -27.0°
Maximum altitude 22:51:33 28° 293° (WNW) 1,740 5.6 -27.2°
Drops below altitude 10° 22:56:48 10° 351° (N) 2,723 7.3 -27.5°
Sets 22:59:45 0° 3° (N) 3,679 8.1 -27.6°
